Satellite-Ground Cal/Val Region Overpasses Predictions

Prediction of Satellite NPP Overpassing Cal/Val Region: PacNW

Region Location: (Latitude: 10.00, Longitude: 139.50) to (Latitude: 22.70, Longitude: 165.60).

Table of predicted overpasses for the next 14.0 days since TLE Epoch: 5/22/2015
Interval Starting Time Starting Location Ending Time Ending Location
1 05/23/2015 03:09:26 ( 10.04, 153.57) 05/23/2015 03:13:01 ( 22.66, 150.58)
2 05/23/2015 15:41:19 ( 22.67, 150.79) 05/23/2015 15:44:54 ( 10.05, 147.79)
3 05/24/2015 02:50:24 ( 10.01, 158.33) 05/24/2015 02:54:00 ( 22.69, 155.33)
4 05/24/2015 15:22:17 ( 22.70, 155.55) 05/24/2015 15:25:53 ( 10.01, 152.54)
5 05/25/2015 02:31:22 ( 10.05, 163.08) 05/25/2015 02:34:57 ( 22.67, 160.09)
6 05/25/2015 15:03:15 ( 22.66, 160.30) 05/25/2015 15:06:50 ( 10.04, 157.30)
7 05/26/2015 02:15:03 ( 19.60, 165.60) 05/26/2015 02:15:55 ( 22.65, 164.85)
8 05/26/2015 03:53:50 ( 10.03, 142.46) 05/26/2015 03:57:22 ( 22.48, 139.51)
9 05/26/2015 14:44:13 ( 22.68, 165.06) 05/26/2015 14:47:49 ( 10.00, 162.05)
10 05/26/2015 16:25:43 ( 22.68, 139.68) 05/26/2015 16:25:55 ( 21.97, 139.51)
11 05/27/2015 03:34:47 ( 10.01, 147.23) 05/27/2015 03:38:23 ( 22.69, 144.22)
12 05/27/2015 16:06:40 ( 22.70, 144.44) 05/27/2015 16:10:16 ( 10.02, 141.43)
13 05/28/2015 03:15:46 ( 10.04, 151.97) 05/28/2015 03:19:21 ( 22.67, 148.98)
14 05/28/2015 15:47:39 ( 22.66, 149.19) 05/28/2015 15:51:14 ( 10.04, 146.19)
15 05/29/2015 02:56:43 ( 10.02, 156.73) 05/29/2015 03:00:18 ( 22.65, 153.74)
16 05/29/2015 15:28:36 ( 22.68, 153.95) 05/29/2015 15:32:11 ( 10.06, 150.95)
17 05/30/2015 02:37:41 ( 10.00, 161.49) 05/30/2015 02:41:17 ( 22.68, 158.48)
18 05/30/2015 15:09:35 ( 22.64, 158.69) 05/30/2015 15:13:10 ( 10.02, 155.70)
19 05/31/2015 02:19:27 ( 12.86, 165.59) 05/31/2015 02:22:14 ( 22.66, 163.24)
20 05/31/2015 04:00:09 ( 10.05, 140.86) 05/31/2015 04:01:49 ( 15.92, 139.50)
21 05/31/2015 14:50:32 ( 22.66, 163.45) 05/31/2015 14:54:07 ( 10.04, 160.46)
22 06/01/2015 03:41:07 ( 10.03, 145.62) 06/01/2015 03:44:42 ( 22.65, 142.63)
23
